EHI
8 8 6 4 3 1 0 0 1 2 2 2 1 0 0 0 0 0 0 0 0 0 0 0 0 0 0 0 0 0 0 0 0 0 0 0 0 0 0 0 0 0 0
7 7 6 4 3 2 2 1 0 1 1 1 0 0 0 0 0 0 0 0 0 0 0 0 0 0 0 0 0 0 0 0 0 0 0 0 0 0 0 0 0 0 0
8 7 6 4 3 3 3 2 0 0 0 0 0 0 0 0 0 0 0 0 0 0 0 0 0 0 0 0 0 0 0 0 0 0 0 0 0 0 0 0 0 0 0
8 8 6 3 2 2 2 1 0 0 0 0 0 0 0 0 0 0 0 0 0 0 0 0 0 0 0 0 0 0 0 0 0 0 0 0 0 0 0 0 0 0 0
7 7 5 3 1 1 0 0 0 1 0 0 0 0 0 0 0 0 0 0 0 0 0 0 0 0 0 0 0 0 0 0 0 0 0 0 0 0 0 0 0 0 0
5 4 3 2 1 0 0 0 0 1 1 0 0 0 0 0 0 0 0 0 0 0 0 0 0 0 0 0 0 0 0 0 0 0 0 0 0 0 0 0 0 0 0
3 2 1 1 1 0 0 0 1 2 1 0 0 0 0 0 0 0 0 0 0 0 0 0 0 0 0 0 0 0 0 0 0 0 0 0 0 0 0 0 0 0 0
1 0 0 0 0 0 0 0 1 1 1 0 0 0 0 0 0 0 0 0 0 0 0 0 0 0 0 0 0 0 0 0 0 0 0 0 0 0 0 0 0 0 0
0 0 0 0 0 0 0 0 0 0 0 0 0 0 0 0 0 0 0 0 0 0 0 0 0 0 0 0 0 0 0 0 0 0 0 0 0 0 0 0 0 0 0
0 0 0 0 0 1 1 1 1 1 0 0 0 0 0 0 0 0 0 0 0 0 0 0 0 0 0 0 0 0 0 0 0 0 0 0 0 0 0 0 0 0 0
0 0 0 0 0 1 2 2 2 2 1 1 0 0 0 0 0 0 0 0 0 0 0 0 0 0 0 0 0 0 0 0 0 0 0 0 0 0 0 0 0 0 0
0 0 0 0 0 1 1 2 3 3 3 2 1 0 0 0 0 0 0 0 0 0 0 0 0 0 0 0 0 0 0 0 0 0 0 0 0 0 0 0 0 0 0
0 0 0 0 0 0 0 1 1 2 3 3 2 1 0 0 0 0 0 0 0 0 0 0 0 0 0 0 0 0 0 0 0 0 0 0 0 0 0 0 0 0 0
0 0 0 0 0 0 0 0 0 1 2 2 2 1 0 0 0 0 0 0 0 0 0 0 0 0 0 0 0 0 0 0 0 0 0 0 0 0 0 0 0 0 0
0 0 0 0 0 0 0 0 0 0 1 1 1 0 0 0 0 0 0 0 0 0 0 0 0 0 0 0 0 0 0 0 0 0 0 0 0 0 0 0 0 0 0
0 0 0 0 0 0 0 0 0 0 0 0 0 0 0 0 0 0 0 0 0 0 0 0 0 0 0 0 0 0 0 0 0 0 0 0 0 0 0 0 0 0 0
0 0 0 0 0 0 0 0 0 0 0 0 0 0 0 0 0 0 0 0 0 0 0 0 0 0 0 0 0 0 0 0 0 0 0 0 0 0 0 0 0 0 0
0 0 0 0 0 0 0 0 0 0 0 0 0 0 0 0 0 0 0 0 0 0 0 0 0 0 0 0 0 0 0 0 0 0 0 0 0 0 0 0 0 0 0
0 0 0 0 0 0 0 0 0 0 0 0 0 0 0 0 0 0 0 0 0 0 0 0 0 0 0 0 0 0 0 0 0 0 0 0 0 0 0 0 0 0 0
0 0 0 0 0 0 0 0 0 0 0 0 0 0 0 0 0 0 0 0 0 0 0 0 0 0 0 0 0 0 0 0 0 0 0 0 0 0 0 0 0 0 0
0 0 0 0 0 0 0 0 0 0 0 0 0 0 0 0 0 0 0 0 0 0 0 0 0 0 0 0 0 0 0 0 0 0 0 0 0 0 0 0 0 0 0
0 0 0 0 0 0 0 0 0 0 0 0 0 0 0 0 0 0 0 0 0 0 0 0 0 0 0 0 0 0 0 0 0 0 0 0 0 0 0 0 0 0 0
0 0 0 0 0 0 0 0 0 0 0 0 0 0 0 0 0 0 0 0 0 0 0 0 0 0 0 0 0 0 0 0 0 0 0 0 0 0 0 0 0 0 0
0 0 0 0 0 0 0 0 0 0 0 0 0 0 0 0 0 0 0 0 0 0 0 0 0 0 0 0 0 0 0 0 0 0 0 0 0 0 0 0 0 0 0
0 0 0 0 0 0 0 0 0 0 0 0 0 0 0 0 0 0 0 0 0 0 0 0 0 0 0 0 0 0 0 0 0 0 0 0 0 0 0 0 0 0 0
0 0 0 0 0 0 0 0 0 0 0 0 0 0 0 0 0 0 0 0 0 0 0 0 0 0 0 0 0 0 0 0 0 0 0 0 0 0 0 0 0 0 0
Wind_Speed
2 2 2 1 1 1 1 1 2 2 2 3 3 4 4 4 4 4 5 5 6 5 4 5 4 3 3 3 3 3 3 3 4 2 1 1 0 1 1 1 1 1 1
3 2 2 2 2 1 1 0 0 1 1 1 2 2 3 3 4 4 5 5 5 5 4 4 4 3 2 2 2 3 3 3 4 4 1 0 1 1 0 0 0 0 0
4 3 3 3 2 2 1 1 1 1 1 1 1 1 1 1 2 3 4 4 4 4 4 4 3 3 3 1 2 2 2 2 2 2 2 1 0 1 1 1 2 1 1
5 4 4 3 3 2 2 2 2 2 2 1 1 1 0 1 1 2 3 3 3 3 3 3 3 3 3 2 2 2 2 2 2 2 1 1 0 0 1 1 1 2 2
5 5 4 4 4 3 3 3 3 3 3 2 2 2 1 1 0 1 2 3 3 3 2 2 2 3 3 2 2 2 2 2 2 1 1 1 0 1 0 0 1 1 2
5 5 4 4 4 4 4 4 4 4 3 3 3 3 3 2 3 4 4 3 3 4 3 2 2 3 5 5 5 5 3 3 2 2 1 1 0 0 0 0 1 1 0
5 5 5 4 4 4 4 5 5 4 4 5 4 4 4 5 5 6 7 5 5 4 4 3 3 4 4 5 7 9 9 8 5 3 2 1 1 0 1 1 1 1 1
6 5 5 5 5 5 5 5 4 4 4 4 5 4 4 5 7 7 8 7 7 6 5 5 5 5 5 5 6 7 7 7 6 5 4 3 3 2 1 2 2 2 2
6 5 5 5 5 5 5 4 4 4 5 4 4 4 5 5 7 7 7 6 6 7 6 6 6 5 7 7 7 7 7 7 10 13 12 10 11 9 6 4 3 3 2
5 5 5 5 5 5 4 4 4 4 5 5 6 6 6 6 8 8 6 5 6 6 6 7 9 8 8 8 7 7 7 5 5 6 8 9 8 10 10 6 3 2 2
5 6 5 5 5 5 4 4 4 5 6 6 7 7 7 7 9 10 8 5 5 6 5 5 5 10 10 10 8 7 6 5 5 6 6 6 6 6 6 6 5 3 2
6 7 6 5 5 5 5 5 5 5 6 6 6 7 6 7 8 9 11 9 7 7 5 5 6 10 11 11 8 8 9 7 5 5 5 5 5 5 4 5 5 5 4
7 7 6 7 7 6 6 6 5 5 5 5 5 5 5 5 7 12 12 12 12 8 7 10 10 11 10 9 11 10 8 5 5 5 4 4 3 3 3 3 4 4 5
8 7 6 7 7 7 6 5 5 4 4 4 4 5 4 5 5 5 5 7 10 9 7 10 12 13 10 10 9 7 6 5 5 4 3 3 3 3 4 3 3 3 3
8 7 7 6 7 7 8 7 6 5 3 4 3 3 4 4 4 5 5 5 5 6 6 6 6 6 7 6 6 6 6 5 5 4 3 4 4 4 4 3 3 3 3
7 6 5 5 6 6 7 8 13 11 13 12 9 6 6 6 8 10 11 11 11 9 8 7 6 6 6 6 5 5 5 5 4 4 4 4 3 3 3 3 3 3 3
8 6 5 5 6 5 5 6 6 9 13 14 13 11 10 10 11 12 13 13 12 10 8 6 6 5 5 4 4 4 4 4 3 4 4 4 3 3 3 3 3 3 3
8 8 7 5 5 5 5 5 5 6 6 6 9 11 11 11 11 11 10 10 9 8 6 5 5 4 4 4 4 3 3 4 4 4 4 3 3 3 3 3 3 3 3
7 6 6 5 5 6 5 5 5 6 6 5 5 6 9 10 11 11 9 7 6 5 5 5 4 4 4 3 3 3 3 3 4 3 3 4 3 3 3 3 3 4 3
6 10 8 6 6 5 5 5 5 5 5 4 4 3 3 5 5 6 6 5 5 5 4 4 4 3 3 3 3 3 3 3 4 3 3 3 3 2 3 3 3 3 3
6 8 11 7 6 5 5 5 5 5 5 4 3 4 5 5 5 4 4 4 4 3 3 3 3 3 3 3 3 3 3 3 3 3 3 3 3 2 2 2 2 2 3
6 6 5 6 5 5 5 5 5 5 5 5 4 4 6 5 4 4 3 3 3 2 2 2 2 2 2 2 2 2 2 2 2 3 3 3 2 2 2 2 3 3 3
6 7 6 5 5 6 5 5 4 4 4 4 4 3 3 3 3 3 3 2 2 2 2 2 2 2 2 2 1 1 1 2 2 2 2 2 2 2 2 3 3 3 3
6 6 6 5 5 5 5 4 4 4 4 4 3 3 3 3 3 3 2 2 2 1 1 1 1 1 2 1 1 1 1 2 2 2 2 2 2 2 2 2 3 3 3
6 6 5 5 5 4 4 4 4 3 3 3 3 3 2 2 2 2 2 1 1 1 1 1 1 1 1 1 2 2 3 3 3 2 2 2 2 3 3 3 3 3 3
5 5 5 4 4 4 4 4 3 3 3 3 2 2 2 2 2 2 2 1 1 1 1 1 1 1 1 2 2 3 3 3 3 3 2 2 2 2 3 2 3 2 3
Wind_Direction
114 122 118 128 155 166 195 224 226 226 213 211 215 209 209 211 201 195 204 198 200 205 204 204 209 205 208 207 202 198 201 199 224 244 236 274 250 292 308 233 232 229 248
104 99 102 93 79 76 66 296 207 196 201 209 209 208 211 207 197 193 201 199 194 197 199 195 203 198 205 206 199 205 206 206 208 227 236 269 271 290 347 59 23 126 213
99 93 84 76 77 68 38 28 57 68 59 66 96 158 190 192 190 194 192 193 190 189 186 188 194 180 194 201 206 212 211 209 208 205 220 215 329 12 45 51 54 24 48
99 92 81 71 64 56 52 52 53 56 55 54 58 74 142 174 186 184 176 180 179 179 181 182 182 178 185 186 199 208 193 183 180 185 197 200 96 36 88 90 65 48 35
98 90 82 74 68 61 55 52 51 50 48 50 60 51 40 66 126 154 157 153 154 148 136 131 139 134 142 149 164 178 168 159 157 166 178 141 82 61 150 187 153 94 53
94 91 84 80 74 67 58 52 51 47 46 52 54 55 47 43 52 89 106 115 120 124 116 102 102 105 101 98 92 91 105 133 148 141 134 125 120 240 339 139 151 145 66
91 86 82 82 77 67 65 59 53 49 51 53 50 54 54 44 61 80 85 96 96 98 98 92 85 78 83 88 82 75 68 70 87 119 116 112 99 40 111 73 68 85 87
91 83 78 77 74 65 60 54 47 51 56 56 51 54 60 53 66 79 85 83 78 73 74 80 83 76 79 92 92 79 67 55 60 70 78 67 62 65 89 107 117 104 77
90 84 79 81 80 73 64 53 46 56 58 57 54 54 60 52 56 74 84 83 79 71 64 63 74 78 76 87 94 89 77 66 66 71 69 63 59 58 64 81 77 88 70
90 84 80 84 87 81 73 63 57 62 60 64 62 56 61 56 54 64 80 90 86 76 65 59 64 75 80 86 93 95 89 73 70 65 58 51 51 51 51 55 68 83 81
91 84 78 78 82 79 74 69 70 72 70 65 64 55 52 49 50 58 71 83 92 87 76 65 63 74 77 78 81 85 94 91 76 72 66 57 51 47 44 44 43 57 74
94 86 78 71 76 75 74 69 69 77 79 74 68 59 46 42 50 59 67 75 83 87 79 70 69 73 72 72 75 81 83 81 76 70 64 54 48 41 37 43 47 48 51
95 87 83 78 69 67 71 70 65 64 76 76 76 69 53 44 48 56 63 69 75 80 79 80 74 71 70 67 65 68 69 71 73 71 62 46 32 26 32 41 41 47 51
96 89 87 87 77 65 61 61 67 63 76 83 84 80 69 56 49 52 62 71 74 79 78 74 70 66 65 62 58 52 52 58 70 69 58 40 32 36 35 28 31 28 42
99 97 93 89 90 79 68 54 59 49 67 96 94 93 89 73 44 68 87 82 83 89 86 70 61 58 57 53 51 48 45 47 52 49 49 46 38 36 26 18 24 29 38
105 100 99 97 92 91 91 74 56 63 64 67 73 84 72 82 86 79 77 77 79 85 81 74 67 63 61 57 54 49 44 41 39 43 44 41 38 35 29 24 29 36 38
114 113 104 101 99 97 95 95 85 62 59 58 59 70 82 86 84 83 82 76 69 73 77 75 71 67 64 59 56 54 45 33 36 44 44 38 37 35 33 30 28 29 26
106 107 106 101 99 95 91 89 91 91 79 59 48 60 73 77 77 79 82 79 64 59 71 77 75 70 65 60 54 49 44 37 37 38 38 34 33 34 34 30 27 23 15
105 105 103 101 97 96 95 91 88 88 87 82 74 62 64 71 67 60 64 74 79 72 69 69 67 66 64 59 52 47 45 39 32 30 30 28 26 28 29 23 22 20 14
102 111 109 105 103 102 100 100 98 96 92 85 80 73 66 70 69 56 56 68 77 78 75 73 66 61 59 57 53 47 46 39 31 29 23 19 17 21 22 16 16 15 9
105 110 111 106 104 105 104 103 104 102 97 89 75 69 90 93 90 81 76 74 78 83 84 82 71 61 54 51 49 45 42 32 24 16 12 9 10 14 11 12 13 11 4
105 104 106 108 107 105 105 104 103 102 103 98 85 76 81 89 92 90 85 81 77 76 82 90 81 63 49 44 41 41 36 27 15 6 1 360 1 5 4 5 6 2 358
113 113 107 105 108 112 109 107 107 107 107 107 107 102 97 98 101 102 99 90 82 81 83 90 88 69 53 43 32 26 17 0 342 333 335 345 354 357 355 354 351 350 353
121 121 120 118 115 117 119 117 115 116 116 116 115 113 113 114 116 114 111 106 97 91 91 93 86 73 54 39 25 7 352 334 322 315 318 321 331 338 341 343 344 345 343
123 126 128 130 131 131 129 126 126 127 127 129 130 129 130 132 134 132 127 122 121 124 125 115 88 48 10 1 355 348 342 340 339 333 319 310 318 323 327 330 336 342 344
128 131 133 135 137 140 142 143 145 147 147 148 147 149 154 157 159 158 156 156 163 178 200 215 248 280 313 323 328 330 330 335 339 335 321 313 317 319 323 322 332 340 346